[Iaude] MPEC A137: 2019 AQ6 [a=2.40,e=0.49,i=6.6,H=21.6]

mpec at mpcdb1.cfa.harvard.edu mpec at mpcdb1.cfa.harvard.edu
Wed Jan 9 10:39:16 EST 2019


M.P.E.C. 2019-A137                               Issued 2019 Jan.  9, 15:36 UT
 
     The Minor Planet Electronic Circulars contain information on unusual
         minor planets and routine data on comets.  They are published
    on behalf of Division F of the International Astronomical Union by the
          Minor Planet Center, Smithsonian Astrophysical Observatory,
                          Cambridge, MA 02138, U.S.A.

             Prepared using the Tamkin Foundation Computer Network

                              MPC at CFA.HARVARD.EDU
            URL https://www.minorplanetcenter.net/    ISSN 1523-6714


                                   2019 AQ6
 
Observations:
     K19A06Q* C2019 01 07.35708 03 20 38.374+22 02 44.52         21.9 wUEA137F51
     K19A06Q  C2019 01 07.37067 03 20 38.933+22 02 59.99         22.0 wUEA137F51
     K19A06Q  C2019 01 07.38425 03 20 39.475+22 03 16.06         21.6 wUEA137F51
     K19A06Q  C2019 01 07.39785 03 20 40.012+22 03 31.65         21.9 wUEA137F51
     K19A06Q  C2019 01 08.12907 03 21 17.42 +22 18 01.7          21.9 GVEA137V06
     K19A06Q  C2019 01 08.13319 03 21 17.60 +22 18 06.9          21.1 GVEA137V06
     K19A06Q  C2019 01 08.14144 03 21 17.98 +22 18 16.6          21.3 GVEA137V06
     K19A06Q KC2019 01 09.01849603 22 05.33 +22 35 46.4          21.4 VuEA137H21
     K19A06Q KC2019 01 09.03302803 22 06.05 +22 36 04.3          21.9 VuEA137H21
     K19A06Q KC2019 01 09.04891303 22 06.82 +22 36 23.6          21.3 VuEA137H21
     K19A06Q  C2019 01 09.10641 03 22 10.12 +22 37 34.8          21.6 GVEA137V06
     K19A06Q  C2019 01 09.10887 03 22 10.22 +22 37 37.8          21.6 GVEA137V06
     K19A06Q  C2019 01 09.11134 03 22 10.35 +22 37 40.9          21.9 GVEA137V06
     K19A06Q  C2019 01 09.11381 03 22 10.47 +22 37 43.8          21.7 GVEA137V06
     K19A06Q  C2019 01 09.27932903 22 19.462+22 41 08.22         21.77GVEA137T12
     K19A06Q  C2019 01 09.28009903 22 19.501+22 41 09.14         21.71GVEA137T12
 
Observer details:
F51 Pan-STARRS 1, Haleakala.  Observers J. Bulger, T. Lowe, A. Schultz,
    M. Willman.  Measurers K. Chambers, S. Chastel, L. Denneau, J. Fairlamb,
    H. Flewelling, M. Huber, C.-C. Lin, E. Magnier, Y. Ramanjooloo,
    R. Wainscoat, R. Weryk.  1.8-m Ritchey-Chretien + CCD.
H21 Astronomical Research Observatory, Westfield.  Observer R. Holmes.
    Measurers S. Foglia, L. Buzzi, T. Linder, R. Holmes.  0.76-m f/3.0
    astrograph + CCD.
T12 Mauna Kea-UH/Tholen NEO Follow-Up (2.24-m).  Observer D. Hung.  Measurer
    D. J. Tholen.  2.24-m f/10.1 reflector + CCD.
V06 Catalina Sky Survey-Kuiper.  Observer A. R. Gibbs.  Measurers
    B. M. Africano, E. J. Christensen, G. A. Farneth, D. C. Fuls, A. R. Gibbs,
    A. D. Grauer, H. Groeller, R. A. Kowalski, S. M. Larson, G. J. Leonard,
    R. L. Seaman, F. C. Shelly.  1.55-m reflector + CCD.
 
Orbital elements:
2019 AQ6                                                 Earth MOID = 0.2561 AU
Epoch 2019 Apr. 27.0 TT = JDT 2458600.5                 MPC
M  20.39446              (2000.0)            P               Q
n   0.26440992     Peri.   37.90983     -0.48790180     -0.86539212
a   2.4040909      Node    81.56018     +0.76999506     -0.48832440
e   0.4890219      Incl.    6.63130     +0.41116838     -0.11240893
P   3.73           H   21.6           G   0.15           U   9
Residuals in seconds of arc
190107 F51  0.6+  0.2+    190108 V06  0.5+  0.1+    190109 V06  0.8+  0.0
190107 F51  0.8+  0.1-    190109 H21  0.5+  0.2+    190109 V06  0.8+  0.1-
190107 F51  0.7+  0.2+    190109 H21  0.7+  0.4+    190109 T12  0.6+  0.1+
190107 F51  0.4+  0.0     190109 H21  0.6+  0.4+    190109 T12  0.6+  0.1+
190108 V06  0.2+  0.1+    190109 V06  0.9+  0.1-
190108 V06  0.2+  0.3+    190109 V06  0.6+  0.1-

Ephemeris:
2019 AQ6                 a,e,i = 2.40, 0.49, 7                   q = 1.2284
Date    TT    R. A. (2000) Decl.     Delta      r     Elong.  Phase     V
2018 12 10    03 25 51.3 +14 20 58   0.4318  1.3878   154.8    17.6    21.4
...
2018 12 25    03 16 47.7 +17 56 23   0.4140  1.3230   138.7    29.4    21.6
...
2019 01 02    03 17 31.0 +20 19 09   0.4137  1.2942   131.3    34.8    21.7
...
2019 01 08    03 21 10.6 +22 15 30   0.4166  1.2756   126.4    38.3    21.8
2019 01 09    03 22 03.7 +22 35 29   0.4172  1.2728   125.7    38.9    21.8
2019 01 10    03 23 01.7 +22 55 37   0.4180  1.2700   125.0    39.4    21.8
...
2019 01 16    03 30 31.0 +24 58 38   0.4236  1.2553   121.0    42.2    21.9
...
2019 01 24    03 45 00.3 +27 44 24   0.4337  1.2404   116.6    45.2    22.0
...
2019 02 08    04 25 38.2 +32 31 19   0.4609  1.2285   110.9    48.6    22.2

A. U. Tomatic                (C) Copyright 2019 MPC           M.P.E.C. 2019-A137



More information about the Iaude mailing list